Regional Weather Roundup
Issued by NWS

Home | Current Version | Previous Version | Graphics & Text | Print | Product List | Glossary Off
Versions: 1 2 3 4 5 6 7 8 9 10 11 12 13 14 15 16 17 18 19 20 21 22 23 24 25 26 27 28 29 30 31 32 33 34 35 36 37 38 39 40 41 42 43 44 45 46 47 48 49 50

394
ASUS43 KMPX 250901
RWRMN
WEATHER ROUNDUP FOR MINNESOTA
NATIONAL WEATHER SERVICE TWIN CITIES/CHANHASSEN MN
400 AM CDT WED MAY 25 2016


NOTE: "FAIR" INDICATES FEW OR NO CLOUDS BELOW 12,000 FEET WITH NO
SIGNIFICANT WEATHER AND/OR OBSTRUCTIONS TO VISIBILITY. N/A MEANS
CURRENT SKY AND/OR WEATHER CONDITIONS ARE NOT AVAILABLE.

MNZ060>063-068>070-251000-
   Twin Cities Metro

CITY           SKY/WX    TMP DP  RH WIND       PRES   REMARKS
TWIN CITIES    CLOUDY    67  56  67 E6        29.90F
ST PAUL        CLOUDY    63  58  83 CALM      29.91F
CRYSTAL        CLOUDY    65  55  70 E3        29.89F
BLAINE         CLOUDY    64  57  77 E6        29.91F
EDEN PRAIRIE   CLOUDY    66  58  75 NE7       29.89F
SOUTH ST PAUL  CLOUDY    63  56  79 CALM      29.91F
LAKE ELMO      FAIR      59  54  82 CALM      29.93F
$$
MNZ001>005-007-008-013>017-022>024-027-028-251000-
   Northwest Minnesota

CITY           SKY/WX    TMP DP  RH WIND       PRES   REMARKS
BEMIDJI        MOCLDY    57  53  85 E6        29.95S
HALLOCK        CLOUDY    61  52  72 SE9       29.90R HAZE
ROSEAU         PTCLDY    52  46  82 CALM      29.94R
WARROAD        PTCLDY    55  52  88 SE5       29.95R
THIEF RVR FALL MOCLDY    59  50  72 E9        29.93S
CROOKSTON      CLOUDY    61  52  72 E12       29.89F
FOSSTON        CLOUDY    55  48  76 E3        29.92F
DETROIT LAKES  CLOUDY    63  50  63 SE9       29.90S
MOORHEAD       CLOUDY    66  50  55 E13       29.84F
PARK RAPIDS    PTCLDY    61  52  72 E10       29.92F
MAHNOMEN       FAIR      62  51  65 E12       29.89F
$$
MNZ006-009>011-018-025>026-251000-
   North Central Minnesota

CITY           SKY/WX    TMP DP  RH WIND       PRES   REMARKS
BAUDETTE       CLEAR     51  49  92 S5        29.96R
FLAG ISLAND    CLEAR     57  55  94 S8        29.94R
INTL FALLS     CLEAR     46  45  96 SE3       29.97S
WASKISH        CLEAR     52  50  93 E7        29.96R
BIG FORK       CLOUDY    57  54  88 SE3       29.99R
LONGVILLE      CLOUDY    57  55  94 E5        29.96F
CRANE LAKE     PTCLDY    52  50  93 CALM      30.01R
ORR            CLOUDY    55  52  88 S6        29.98R
COOK           PTCLDY    54  52  94 SE6       30.02R
WALKER         FAIR      57  54  88 E7        29.95S
$$
MNZ012-019>021-037-251000-
   Northeast Minnesota

CITY           SKY/WX    TMP DP  RH WIND       PRES   REMARKS
DULUTH         FOG       50  49  96 E10       30.02R VSB 1/2
ELY            CLOUDY    52  50  93 SE6       30.02S
HIBBING        CLOUDY    52  51  97 SE8       30.01S
EVELETH        CLOUDY    52  50  93 E5        30.03S
DULUTH HARBOR  CLOUDY    46  45  93 E12       30.04F FOG
TWO HARBORS    CLOUDY    54  48  82 E9        30.02S HAZE
SILVER BAY     CLOUDY    52  48  87 NE6       30.03S FOG
GRAND MARAIS     N/A     47  46  97 E6        30.07R
G MARAIS ARPRT DRZL/FOG  48  45  87 E3        30.07S VSB 1/4
$$
MNZ029>031-032-039>041-046>048-054>057-064-251000-
   West Central Minnesota

CITY           SKY/WX    TMP DP  RH WIND       PRES   REMARKS
FERGUS FALLS   CLOUDY    66  52  59 E9        29.82F
WHEATON        CLOUDY    64  55  72 E10       29.83F
MORRIS         MOCLDY    63  55  77 E10       29.83F
ALEXANDRIA     CLOUDY    62  52  69 SE13      29.89F
ELBOW LAKE     FAIR      64  53  69 SE12      29.85F
WADENA         CLOUDY    57  52  82 E6        29.90S
GLENWOOD       CLOUDY    61  54  77 E9        29.89S
ORTONVILLE     CLOUDY    63  54  72 SE8       29.81F
MADISON        MOCLDY    63  52  67 E8        29.81F
WILLMAR        FAIR      66  59  77 E10       29.88S
$$
MNZ033>034-036-042>043-049>051-058-059-251000-
   Central Minnesota

CITY           SKY/WX    TMP DP  RH WIND       PRES   REMARKS
ST CLOUD       CLOUDY    61  55  81 E9        29.90F
SAUK CENTRE    FAIR      59  53  79 E5        29.89F
PAYNESVILLE    CLOUDY    62  56  80 E7        29.90S
AITKIN         CLOUDY    57  52  82 E7        29.96S
PINE RIVER     CLOUDY    55  55 100 E10       29.98F
BRAINERD       CLOUDY    56  56 100 E9        29.95F
STAPLES        MOCLDY    57  52  82 E5        29.91F
LONG PRAIRIE   FAIR      59  52  77 E5        29.91F
LITTLE FALLS   CLOUDY    59  52  77 E3        29.91F
LITCHFIELD     CLOUDY    63  61  94 SE3       29.89F
BUFFALO        CLOUDY    63  56  79 E3        29.91F
MAPLE LAKE     CLOUDY    63  58  85 E3        29.91F
HUTCHINSON     CLOUDY    64  60  86 NE6       29.89F
$$
MNZ037-044-045-052-053-251000-
   East Central Minnesota

CITY           SKY/WX    TMP DP  RH WIND       PRES   REMARKS
PRINCETON      CLOUDY    61  55  82 NE6       29.93F
MORA           CLOUDY    55  54  94 E6        29.97S FOG
CAMBRIDGE      CLOUDY    61  52  72 NE3       29.92F
RUSH CITY      CLOUDY    56  55  95 NE7       29.95S FOG
MOOSE LAKE     CLOUDY    50  46  87 NE5       29.98F FOG
HINCKLEY       CLOUDY    54  54 100 NE7       29.97F
CLOQUET        FOG       48  46  93 E7        30.01F VSB 1/4
MCGREGOR       CLOUDY    52  52 100 E9        30.00S
$$
MNZ071>073-080-081-089-090-097-098-251000-
   Southwest Minnesota

CITY           SKY/WX    TMP DP  RH WIND       PRES   REMARKS
MONTEVIDEO     CLOUDY    63  57  82 SE7       29.84F
GRANITE FALLS  MOCLDY    66  59  77 E6        29.84F
CANBY          CLOUDY    64  58  81 SE6       29.81F
REDWOOD FALLS  CLOUDY    66  59  78 E7        29.83F
OLIVIA         CLOUDY    59  52  77 E7        29.85F
PIPESTONE      CLOUDY    66  63  88 SE9       29.81F
WINDOM         CLOUDY    66  61  82 CALM      29.85S
JACKSON        CLOUDY    64  59  82 SE10      29.84F
SLAYTON        CLOUDY    63  61  96 SE7       29.83F
$$
MNZ065>067-074>077-082>085-091>093-251000-
   South Central Minnesota

CITY           SKY/WX    TMP DP  RH WIND       PRES   REMARKS
MANKATO        CLOUDY    66  55  68 SE9       29.87F
NEW ULM        CLOUDY    64  57  77 E8        29.85F
ST JAMES       CLOUDY    61  55  82 E7        29.85F
FAIRMONT       CLOUDY    64  48  55 SE8       29.85F
FARIBAULT      CLOUDY    61  55  82 CALM      29.89F
OWATONNA       CLOUDY    66  57  72 SE7       29.88F
WASECA         CLOUDY    63  55  77 E7        29.89F
ALBERT LEA     CLOUDY    64  57  77 SE6       29.88F
$$
MNZ078>079-086>088-094>096-251000-
   Southeast Minnesota

CITY           SKY/WX    TMP DP  RH WIND       PRES   REMARKS
ROCHESTER      CLOUDY    62  59  90 E8        29.91F
RED WING       CLOUDY    61  55  82 E5        29.91F
STANTON        CLOUDY    64  57  78 NE3       29.89S
DODGE CENTER   CLOUDY    63  55  77 E8        29.90F
WINONA         CLOUDY    61  59  94 CALM      29.93F
AUSTIN         CLOUDY    63  57  82 E6        29.89F
PRESTON        CLOUDY    64  57  79 E5        29.92F
$$
ABBREVIATIONS USED IN REMARKS
   TC - TEMPERATURES IN CELSIUS
  WCI - WIND CHILL INDEX
   HX - HEAT INDEX
  VSB - VISIBILITY
$$




USA.gov is the U.S. government's official web portal to all federal, state and local government web resources and services.